ONEWEB-0633, 56074

Orbit data source: Space-Track

ONEWEB-0633, 56074 is a payload satellite owned by One Web (NAA) (UK) in LEO that was launched on Sun, 26 Mar 2023 UTC via a LVM3 launch vehicle from the Sirharikota (SRI). Payload-class satellites include a variety of spacecraft equipped with specific instruments for various scientific and technological missions. These include communications satellites like Starlink; space stations such as the ISS; scientific satellites like the Hubble; Earth observation satellites from companies like Planet Labs, Umbra, and HawkEye 360; GPS; miniature CubeSats for education and research; and military/defense satellites.

Loading next visibility...
Identifier
56074, 2023-043AE
Orbit
LEO
Country
Flag of UKUK
Related business
Manufacturer
One Web
Mission
Operational Commercial Communications
Bus & Motor
ARROW, Unknown motor
Mass
148 kg wet, ~140 kg dry
Launch date (UTC)
2023-03-26 (2 years ago)
Launch vehicle
LVM3
Launch site
Sirharikota (SRI)
Object type
Payload
Rocket body
Debris
Shape & HBR
Trap Box + 2 Pan, 2.5 m
Radar Cross Section
2.032 m², Large (>1 m²)

Expand to show TLE details & history
Last TLE update: 14 hours ago

TLE from 14 hours ago
0 ONEWEB-0633
1 56074U 23043AE  25250.22989858  .00000008  00000-0 -12957-4 0  9996
2 56074  87.9039 315.6465 0001475 101.3059 258.8237 13.15549702119201
Epoch: 2025-09-07T05:31Z
TLE epoch observation values (Epoch: 2025-09-07T05:31:03.237Z)
Latitude
-0.00002°
Longitude
-113.66935°
Altitude
1,204.879 km
Speed
7.251 km/s
True Right ascension
21h 02m 35s
True Declination
0° 00' 00"
Sunlit
Object was in full shadow at epoch
Visualization orbit readout
Latitude
Unknown
Longitude
Unknown
Altitude
Unknown
Speed
Unknown
Apparent Right ascension
Unknown
Apparent Declination
Unknown
Sunlit
N/A
Visualization observer readout
Local Sidereal Time
11:48:11
Azimuth
Unknown
Elevation
Unknown
Doppler factor
Unknown
Orbital elements
Apogee altitude
1,199.996 km
Perigee altitude
1,197.761 km
Semi-major axis
7,577.015 km
Eccentricity
0.00015
Inclination
87.9039°
RAAN
315.6465°
Arg. of periapsis
101.3059°
True anomaly
258.80712°
Mean anomaly
258.8237°
Eccentric anomaly
258.81541°
Mean motion
3.29076 °/min
Orbital period
109.4 mins
BSTAR
-0.000012957
Loading maneuver chart data...
Computing Atmospheric mass density...
Loading historical data...
Loading historical data...
Loading historical data...
Loading historical data...
Loading historical data...
Loading historical data...
Loading historical data...

Documentation

Showing up to 5 results
|